This is the latest recevied weather packets stored in our database for station/object OE-11272. If no packets are shown the sender has not sent any weather packets the latest 10 day(s).
| Time | Temp. | Humidity | Pressure | Rain* | Wind** | Luminosity | Snow |
|---|---|---|---|---|---|---|---|
| 1787845298 | 27.78° C | 61% | 1013 hPa | 0 mm | - | 125 W/m² | - |
| 1787844926 | 27.78° C | 62% | 1013 hPa | 0 mm | - | 131 W/m² | - |
| 1787844326 | 28.33° C | 61% | 1012.9 hPa | 0 mm | - | 156 W/m² | - |
| 1787843499 | 28.33° C | 61% | 1012.9 hPa | 0 mm | - | 169 W/m² | - |
| 1787843126 | 28.33° C | 60% | 1012.8 hPa | 0 mm | - | 206 W/m² | - |
| 1787842526 | 28.89° C | 57% | 1012.8 hPa | 0 mm | - | 262 W/m² | - |
| 1787841698 | 28.89° C | 57% | 1012.9 hPa | 0 mm | - | 325 W/m² | - |
| 1787841326 | 28.33° C | 61% | 1012.8 hPa | 0 mm | - | 294 W/m² | - |
| 1787839899 | 29.44° C | 52% | 1012.9 hPa | 0 mm | - | 387 W/m² | - |
| 1787839526 | 29.44° C | 49% | 1012.9 hPa | 0 mm | - | 493 W/m² | - |
| 1787838926 | 29.44° C | 49% | 1013 hPa | 0 mm | - | 468 W/m² | - |
| 1787838099 | 28.89° C | 52% | 1013 hPa | 0 mm | - | 525 W/m² | - |
| 1787837726 | 28.33° C | 50% | 1013.1 hPa | 0 mm | - | 450 W/m² | - |
| 1787837126 | 28.89° C | 50% | 1013.1 hPa | 0 mm | - | 356 W/m² | - |
| 1787836299 | 28.89° C | 49% | 1013.1 hPa | 0 mm | - | 456 W/m² | - |
| 1787835925 | 28.33° C | 47% | 1013.3 hPa | 0 mm | - | 562 W/m² | - |
| 1787835326 | 28.33° C | 47% | 1013.3 hPa | 0 mm | - | 581 W/m² | - |
| 1787834499 | 28.89° C | 50% | 1013.4 hPa | 0 mm | - | 650 W/m² | - |
| 1787834125 | 28.33° C | 50% | 1013.6 hPa | 0 mm | - | 706 W/m² | - |
| 1787833526 | 28.33° C | 50% | 1013.8 hPa | 0 mm | - | 593 W/m² | - |
| 1787832699 | 27.78° C | 49% | 1014.1 hPa | 0 mm | - | 637 W/m² | - |
| 1787832326 | 27.78° C | 53% | 1014.4 hPa | 0 mm | - | 750 W/m² | - |
| 1787831725 | 27.22° C | 55% | 1014.5 hPa | 0 mm | - | 706 W/m² | - |
| 1787830899 | 26.67° C | 56% | 1014.7 hPa | 0 mm | - | 743 W/m² | - |
| 1787830525 | 26.67° C | 58% | 1014.9 hPa | 0 mm | - | 750 W/m² | - |
* Rain latest hour (hover to see other rain measurements)
** Current wind speed in m/s (hover to see current wind gust speed)